DW3201 Weather Reports


Display with metric or nautical units.
time (UTC)temp
F
wind
direction
speed
MPH
gust
MPH
rain 1hr
in
rain 24hr
in
rain mn
in
humidity
%
barometer
mb
20190620185548 70 58 0.0 0.0 0.00 0.01 0.00 66 1006.8
20190620184547 70 51 0.0 0.0 0.00 0.01 0.00 66 1006.8
20190620183546 70 51 0.0 0.0 0.00 0.01 0.00 67 1006.4
20190620182545 70 51 0.0 1.0 0.00 0.01 0.00 65 1006.4
20190620181544 70 61 0.0 0.0 0.00 0.01 0.00 64 1006.1
20190620180543 70 68 0.0 0.0 0.00 0.01 0.00 63 1006.4
20190620175542 69 77 0.0 3.0 0.00 0.01 0.00 62 1006.4
20190620174541 69 101 0.0 4.0 0.00 0.01 0.00 60 1006.1
20190620173540 68 71 1.0 4.0 0.00 0.01 0.00 55 1006.1
20190620172508 68 17 0.0 0.0 0.00 0.01 0.00 54 1005.8
20190620171507 69 17 0.0 0.0 0.00 0.01 0.00 52 1005.8
20190620170507 68 17 0.0 0.0 0.00 0.01 0.00 47 1005.4
20190620165506 68 17 0.0 0.0 0.00 0.01 0.00 42 1005.4
20190620164505 68 17 0.0 1.0 0.00 0.01 0.00 35 1005.4
20190620163504 66 16 0.0 0.0 0.00 0.01 0.00 29 1005.4
20190620162503 66 16 0.0 0.0 0.00 0.01 0.00 27 1005.8
20190620161502 65 15 0.0 0.0 0.00 0.01 0.00 27 1005.8
20190619235840 61 36 0.0 0.0 0.01 0.01 0.01 41 1005.4
20190619234839 62 36 0.0 3.0 0.00 0.00 0.01 41 1005.4
20190619233821 62 26 1.0 2.0 0.00 0.00 0.00 40 1005.4
20190619232820 62 97 2.0 4.0 0.00 0.00 0.00 37 1005.4
20190619231819 63 90 0.0 0.0 0.00 0.00 0.00 39 1005.4
20190619230818 63 90 0.0 4.0 0.00 0.00 0.00 39 1005.4
20190619225818 63 70 1.0 2.0 0.00 0.00 0.00 41 1005.4
20190619224817 63 71 0.0 4.0 0.00 0.00 0.00 43 1005.4
20190619223816 63 63 1.0 3.0 0.00 0.00 0.00 44 1005.8
20190619222814 63 65 2.0 4.0 0.00 0.00 0.00 44 1005.4
20190619221813 63 78 0.0 0.0 0.00 0.00 0.00 42 1005.4
20190619220812 63 86 0.0 5.0 0.00 0.00 0.00 43 1005.4
20190619215811 63 49 2.0 4.0 0.00 0.00 0.00 42 1005.8
20190619214811 63 79 3.0 4.0 0.00 0.00 0.00 40 1005.8
20190619213809 64 68 1.0 3.0 0.00 0.00 0.00 39 1005.8
20190619212809 64 71 0.0 4.0 0.00 0.00 0.00 37 1005.8
20190619211808 63 70 2.0 3.0 0.00 0.00 0.00 37 1005.8
20190619210807 63 43 2.0 2.0 0.00 0.00 0.00 37 1005.8
20190619205806 64 48 1.0 4.0 0.00 0.00 0.00 35 1006.1
20190619204805 64 37 0.0 1.0 0.00 0.00 0.00 35 1006.1
20190619203804 64 45 2.0 3.0 0.00 0.00 0.00 34 1006.1
20190619202803 63 38 0.0 6.0 0.00 0.00 0.00 36 1006.1
20190619201802 64 40 2.0 3.0 0.00 0.00 0.00 35 1006.1
20190619200801 63 86 1.0 4.0 0.00 0.00 0.00 36 1006.1
20190619195800 64 92 2.0 6.0 0.00 0.00 0.00 35 1006.4
20190619194759 64 51 1.0 3.0 0.00 0.00 0.00 32 1006.4
20190619193758 63 30 0.0 1.0 0.00 0.00 0.00 31 1006.4
20190619192757 64 355 0.0 0.0 0.00 0.00 0.00 30 1006.4
20190619191756 64 56 0.0 3.0 0.00 0.00 0.00 29 1006.4
20190619190755 63 64 0.0 3.0 0.00 0.00 0.00 28 1006.8